Weather History for Flagstaff, AZ

Change the Weather History Date:

Sunday, October 14, 2012

  Actual Average Record
Temperature  
Mean Temperature 48 °F 47 °F  
Max Temperature 63 °F 63 °F 78 °F (1991)
Min Temperature 32 °F 32 °F 18 °F (1975)
Degree Days  
Heating Degree Days 17 18  
Month to date heating degree days 181 216  
Since 1 July heating degree days 391 533  
Cooling Degree Days 0 0  
Month to date cooling degree days 0 0  
Year to date cooling degree days 164 117  
Moisture  
Dew Point 34 °F    
Average Humidity 66    
Maximum Humidity 96    
Minimum Humidity 36    
Precipitation  
Precipitation 0.00 in 0.05 in 0.76 in (2006)
Month to date precipitation 1.03 0.78  
Year to date precipitation 11.79 17.35  
Snow  
Snow 0.00 in 0.00 in 0.50 in (1923)
Month to date snowfall T 0.3  
Since 1 July snowfall T 0.3  
Snow Depth 0.00 in    
Sea Level Pressure  
Sea Level Pressure 30.21 in    
Wind  
Wind Speed 5 mph (ENE)    
Max Wind Speed 18 mph    
Max Gust Speed 24 mph    
Visibility 10 miles    
Events      
T = Trace of Precipitation, MM = Missing Value Source: NWS Daily Summary

Daily Weather History Graph

Daily Weather History Graph

Search for Another Location

Airport:

Trip Planner

Search our weather history database for the weather conditions in past years. The results will help you decide how hot, cold, wet, or windy it might be!

Date:

Astronomy

Oct. 14, 2012 Rise Set
Actual Time 6:32 AM MST 5:52 PM MST
Civil Twilight 6:06 AM MST 6:17 PM MST
Nautical Twilight 5:37 AM MST 6:47 PM MST
Astronomical Twilight 5:08 AM MST 7:16 PM MST
Moon 5:36 AM MST (10/14) 5:15 PM MST (10/14)
Length of Visible Light 12h 10m
Length of Day
11h 19m
Waning Crescent, 1% of the Moon is Illuminated
Oct 14
Waning Crescent
Oct 15
New
Oct 21
First Quarter
Oct 29
Full
Nov 6
Last Quarter

Hourly Weather History & Observations

Time (MST) Temp. Windchill Dew Point Humidity Pressure Visibility Wind Dir Wind Speed Gust Speed Precip Events Conditions
12:57 AM 33.1 °F - 30.9 °F 92% 30.19 in 10.0 mi Calm Calm - N/A   Clear
1:57 AM 32.0 °F - 30.9 °F 96% 30.20 in 10.0 mi Calm Calm - N/A   Clear
2:57 AM 32.0 °F - 30.0 °F 92% 30.19 in 10.0 mi Calm Calm - N/A   Clear
3:57 AM 33.1 °F - 30.9 °F 92% 30.19 in 10.0 mi Calm Calm - N/A   Clear
4:57 AM 33.1 °F - 30.9 °F 92% 30.21 in 10.0 mi Calm Calm - N/A   Clear
6:57 AM 33.1 °F - 30.0 °F 89% 30.28 in 10.0 mi Calm Calm - N/A   Clear
7:57 AM 44.1 °F 40.1 °F 37.0 °F 76% 30.28 in 10.0 mi NE 6.9 mph - N/A   Clear
8:57 AM 52.0 °F - 37.0 °F 57% 30.27 in 10.0 mi NE 12.7 mph - N/A   Clear
9:57 AM 55.9 °F - 37.9 °F 51% 30.27 in 10.0 mi ENE 15.0 mph 19.6 mph N/A   Clear
10:57 AM 57.0 °F - 37.9 °F 49% 30.26 in 10.0 mi ENE 12.7 mph 21.9 mph N/A   Clear
11:57 AM 59.0 °F - 37.9 °F 46% 30.25 in 10.0 mi NE 15.0 mph 21.9 mph N/A   Clear
12:57 PM 60.1 °F - 37.0 °F 42% 30.22 in 10.0 mi ENE 15.0 mph 20.7 mph N/A   Clear
1:57 PM 61.0 °F - 37.0 °F 41% 30.20 in 10.0 mi ENE 8.1 mph 19.6 mph N/A   Clear
2:57 PM 62.1 °F - 35.1 °F 37% 30.18 in 10.0 mi East 12.7 mph - N/A   Clear
3:57 PM 62.1 °F - 35.1 °F 37% 30.17 in 10.0 mi East 8.1 mph - N/A   Clear
4:57 PM 60.1 °F - 35.1 °F 39% 30.17 in 10.0 mi East 9.2 mph - N/A   Clear
5:57 PM 55.0 °F - 36.0 °F 49% 30.20 in 10.0 mi ENE 5.8 mph - N/A   Clear
6:57 PM 48.0 °F - 37.0 °F 66% 30.24 in 10.0 mi Calm Calm - N/A   Clear
7:57 PM 46.9 °F - 35.1 °F 63% 30.20 in 10.0 mi ENE 3.5 mph - N/A   Clear
8:57 PM 41.0 °F - 35.1 °F 79% 30.19 in 10.0 mi Calm Calm - N/A   Clear
9:57 PM 39.0 °F - 34.0 °F 82% 30.19 in 10.0 mi Calm Calm - N/A   Clear
10:57 PM 37.0 °F - 33.1 °F 86% 30.20 in 10.0 mi Calm Calm - N/A   Clear
11:57 PM 35.1 °F - 32.0 °F 89% 30.19 in 10.0 mi Calm Calm - N/A   Clear